Starlink 3658

operational
NORAD ID: 52107 Int'l Des: 2022-029 Owner: SPXS Country: US Constellation: starlink
LEOCIRCULAR

Über Starlink 3658

Beschreibung wird geladen...

Live-Position

3D-Globus wird geladen...

Nächste Überflüge

Höhenverlauf

Altitude vs Time

uPlot chart will show altitude changes over time

Zweizeiliger Elementsatz

1 52107U 22029V 25258.95128984 .00001194 00000-0 93048-4 0 9991
2 52107 53.2166 143.5550 0001427 85.3395 274.7760 15.08849127194406
Epoch: 15. Sept. 2025 • Age: 21 hours

Aktueller Status

Höhe 544.9 km
Geschwindigkeit 7.60 km/s
Subsatellitenpunkt 51.28°N, 85.88°W
Startdatum 19. März 2022
Alter 3.4 years
Typ internet

Technische Details

Klassifizierung Payload
Masse 297.00 kg
Trockenmasse 275.00 kg
Gesamtmasse 297.00 kg
Länge 0.20 m
Durchmesser 2.80 m
Spannweite 9.00 m
Form Box + pan
Hersteller SPXS
Bus-Typ Starlink
Phasenstatus In Orbit
Besitzer/Staat SPXS/US

Große Konstellationen

Loading constellations...